Regional Weather Roundup
Issued by NWS

Home | Current Version | Previous Version | Graphics & Text | Print | Product List | Glossary On
Versions: 1 2 3 4 5 6 7 8 9 10 11 12 13 14 15 16 17 18 19 20 21 22 23 24 25 26 27 28 29 30 31 32 33 34 35 36 37 38 39 40 41 42 43 44 45 46 47 48 49 50
367
ASUS45 KCYS 211910
RWRWY

WYOMING REGIONAL WEATHER ROUNDUP
NATIONAL WEATHER SERVICE CHEYENNE WY
100 PM MDT SAT OCT 21 2017

NOTE:  "FAIR" INDICATES FEW OR NO CLOUDS BELOW 12,000 FEET
WITH NO SIGNIFICANT WEATHER AND/OR OBSTRUCTIONS TO VISIBILITY.

WYZ001-212000-
YELLOWSTONE NATIONAL PARK

CITY           SKY/WX    TMP DP  RH WIND       PRES   REMARKS
LK YELLOWSTONE   N/A     25  20  81 VRB6      30.07R WCI  18
W YELLOWSTONE  NOT AVBL

$$
WYZ002>013-054>058-071-098>099-212000-
NORTHERN WYOMING

CITY           SKY/WX    TMP DP  RH WIND       PRES   REMARKS
JACKSON        CLOUDY    33  21  61 SW17      30.12S WCI  22
CODY           FAIR      46  17  31 SW14G22   29.98F
GREYBULL       PTSUNNY   53  14  21 MISG      29.93F
WORLAND        FAIR      52  14  22 W8        29.94F
SHERIDAN       FAIR      55  15  20 N21G28    29.89F
BUFFALO        FAIR      51   8  17 N18G24    29.91F
GILLETTE       FAIR      51  14  22 NW29G35   29.90S
HULETT         FAIR      50  21  32 W16G30    29.87S
NEWCASTLE      FAIR      50  18  27 NW23G33   29.90F

$$
WYZ014>020-022>026-101>103-212000-
CENTRAL WYOMING

CITY           SKY/WX    TMP DP  RH WIND       PRES   REMARKS
BIG PINEY      FAIR      37  13  37 NW14G23   30.12S WCI  28
PINEDALE       MOCLDY    34  12  40 NW21G29   30.13R WCI  22
DUBOIS         CLOUDY    34  16  47 NW18G35   30.02R WCI  23
LANDER         FAIR      49  10  20 W14       29.99S
RIVERTON       PTSUNNY   49   9  19 W17G26    29.98F
CASPER         FAIR      49   9  19 W17G23    29.97F
DOUGLAS        FAIR      51  11  20 W25G36    29.95F

$$
WYZ021-027>030-104>119-212000-
SOUTHERN WYOMING

CITY           SKY/WX    TMP DP  RH WIND       PRES   REMARKS
EVANSTON       FAIR      38  19  46 SW21G26   30.19R WCI  28
KEMMERER       MOCLDY    36  14  41 W20G28    30.15S WCI  25
FORT BRIDGER   MOCLDY    39  17  41 W20G29    30.20R WCI  29
ROCK SPRINGS   PTSUNNY   40  14  34 W20G33    30.13S WCI  30
DIXON            N/A     35  25  68 S10G17    30.16F WCI  27
RAWLINS        FAIR      41  13  31 W30G37    30.07S
SARATOGA       FAIR      34  28  80 W26G33    30.09F WCI  21
LARAMIE        FAIR      39  13  34 W29G36    30.04S WCI  27
CHEYENNE       FAIR      45  10  24 W33G47    30.00R
TORRINGTON     FAIR      56  12  17 W21G29    29.93S
PINE BLUFFS    FAIR      50  14  23 MISG      29.98F

$$




USA.gov is the U.S. government's official web portal to all federal, state and local government web resources and services.